{"data":{"norad_id":43083,"intl_designator":"2017-085C","name":"YAOGAN-30 04C","alt_names":[],"object_type":"PAYLOAD","status":"ACTIVE","operator":null,"country":"PRC","launch_date":"2017-12-25","launch_site_code":"XICLF","launch_vehicle":null,"mission":null,"orbit_class":"UNKNOWN","rcs_meters":null,"size_class":null,"mass_kg":null,"dimensions":null,"purposes":[],"wikipedia_slug":null,"has_3d_model":false,"image_url":null,"decayed_at":null,"tle_current":{"epoch":"2026-09-20T04:39:27.859680Z","epoch_age_seconds":77824,"freshness":"FRESH","line1":"1 43083U 17085C   26263.19407245  .00001692  00000+0  12518-3 0  9997","line2":"2 43083  34.9955 291.3152 0005392 249.1277 110.8854 15.03046666477056","mean_motion":15.03046666,"eccentricity":0.0005392,"inclination_deg":34.9955,"raan_deg":291.3152,"arg_perigee_deg":249.1277,"mean_anomaly_deg":110.8854,"bstar":0.00012518,"rev_number":47705,"period_min":95.805408612643,"perigee_km":553.7684468525,"apogee_km":561.24784657871,"semimajor_km":6935.6451467156,"source":"CELESTRAK","updated_at":"2026-09-20T09:00:14.300885Z"}}}